Regional Weather Roundup
Issued by NWS State College, PA

Home | Current Version | Previous Version | Text Only | Print | Product List | Glossary On
Versions: 1 2 3 4 5 6 7 8 9 10 11 12 13 14 15 16 17 18 19 20 21 22 23 24 25 26 27 28 29 30 31 32 33 34 35 36 37 38 39 40 41 42 43 44 45 46 47 48 49 50
845
ASUS41 KCTP 171403
RWRCTP

REGIONAL WEATHER ROUNDUP
NATIONAL WEATHER SERVICE STATE COLLEGE PA
900 AM EST TUE JAN 17 2017

Note: "fair" indicates few or no clouds below 12,000 feet with no
significant weather and/or obstructions to visibility.

* = STATION THAT DOES NOT REPORT PRECIPITATION /E.G. RAIN...SNOW...ETC/
    THUNDER OR FOG.

PAZ002>004-007>009-013>016-020>023-029>032-171500-
WESTERN PENNSYLVANIA

CITY           SKY/WX    TMP DP  RH WIND       PRES   REMARKS
ERIE           LGT RAIN  49  45  86 S16G28    29.88F
MEADVILLE      LGT RAIN  46  43  89 SE5       29.90F FOG
FRANKLIN*        N/A     45  41  87 S9        29.95F
NEW CASTLE     CLOUDY    47  46  97 VRB6      29.94F
BEAVER COUNTY  CLOUDY    45  45 100 S6        29.95  FOG
BUTLER*        CLOUDY    46  45  93 S10       29.98F
PITTSBURGH INT LGT RAIN  47  47 100 SE5       29.95F
PITTSBURGH     LGT RAIN  50  47  89 S9        29.96S
INDIANA*       CLOUDY    48  48 100 SE6       30.02R FOG
LATROBE        LGT RAIN  54  54 100 S14G28    29.98F FOG
WASHINGTON CO* CLOUDY    52  52 100 S9        29.97S
$$

PAZ004>006-010>012-017>019-024>028-033>037-041-042-045-046-049>053-171500-
CENTRAL PENNSYLVANIA

CITY           SKY/WX    TMP DP  RH WIND       PRES   REMARKS
BRADFORD       LGT RAIN  36  36 100 SE7       29.98F FOG
DUBOIS         MIX PCPN  37  35  92 SE9       29.98F VSB 3/4
CLEARFIELD     LGT RAIN  34  33  96 NE9       30.04F FOG
JOHNSTOWN      LGT RAIN  49  47  93 S15       29.99F
ALTOONA        LGT RAIN  34  33  96 S5        30.08F VSB 1
STATE COLLEGE  LGT RAIN  32  30  93 CALM      30.10S VSB 1
WILLIAMSPORT   LGT RAIN  35  29  78 E8        30.15S
SELINSGROVE    LGT RAIN  33  33 100 CALM      30.17F FOG
FT INDIANTOWN  NOT AVBL
CAPITAL CITY   CLOUDY    37  29  72 E5        30.19R
HARRISBURG     CLOUDY    36  31  82 CALM      30.20R HAZE
YORK           LGT RAIN  36  35  96 CALM      30.18R FOG
$$

PAZ038>040-043-044-047-048-054-055-060>062-067>071-171500-
EASTERN PENNSYLVANIA

CITY           SKY/WX    TMP DP  RH WIND       PRES   REMARKS
SCRANTON       CLOUDY    35  32  88 CALM      30.15S FOG
MOUNT POCONO   CLOUDY    33  30  88 E5        30.13R
ALLENTOWN      CLOUDY    36  30  79 CALM      30.21R HAZE
QUAKERTOWN*    CLOUDY    36  32  87 CALM      30.21R
READING        CLOUDY    36  28  73 NE3       30.19S
LANCASTER      CLOUDY    37  33  85 CALM      30.19S
COATESVILLE    CLOUDY    36  32  87 CALM      30.20F
POTTSTOWN      CLOUDY    37  28  70 CALM      30.21F
BLUE BELL      CLOUDY    37  32  81 CALM      30.21R
DOYLESTOWN     CLOUDY    40  28  62 CALM      30.20R
WILLOW GROVE   NOT AVBL
NORTH PHILA    CLOUDY    41  31  67 SE3       30.24R
PHILADELPHIA   CLOUDY    40  33  76 S6        30.23R
$$




USA.gov is the U.S. government's official web portal to all federal, state and local government web resources and services.